YAM-8

导读

YAM-8卫星计划于2025年3月15日发射,目前发射国家尚未公布。作为一颗规划中的人造卫星,它的成功入轨将为相关空间科学研究、对地观测或通信等领域提供新的数据支撑,进一步推动人类对宇宙空间的探索与利用,也将丰富全球卫星星座的布局,助力空间技术的持续发展,其后续进展备受航天领域关注。

基本信息
目录编号:
63254
目录名称:
YAM-8
国际标识:
2025-052AW
轨道中心:
EARTH
卫星名称:
YAM-8
卫星全名:
YAM-8
卫星状态:
在轨 (已飞行539 天)
发射日期:
2025-03-15 UTC
国别 :
美国 (US)
星等 :
--
轨道信息
数据来源 国际轨道数据
星历时间: 2026-09-05T08:50:57+0800
9小时前
查看轨道信息
半长轴: 6915.229km
偏心率: 0.0001808
轨道倾角: 97.683°
近地点辐角 163.757°
升交点赤经 149.918°
平近点角 196.372°
近地点: 535.841km
远地点: 538.343km
周期: 95.383分钟
每日圈数: 15.097081
详细信息
使用方式:
暂无
2D轨道图
3D轨道图
轨道高度分析图
轨道倾角分析图
轨道综合分析图
查看轨道综合分析图
交会数据列表
事件ID 空间交会对象 最接近时刻(TCA) 交会距离 交会风险概率(CRP) 交会风险指数(CRI) 操作
CDM_260906-023604-377606-325423
YAM-8 (63254)
2026-09-06T
02:36:46+0000
1.592 km
极远距离
5.315732E-6 低风险 0.5
CDM_260904-092905-409306-325421
YAM-8 (63254)
2026-09-04T
09:29:47+0000
1.748 km
极远距离
3.614726E-6 低风险 0.46
CDM_260831-010906-325406-540021
YAM-8 (63254)
2026-08-31T
01:09:46+0000
2.551 km
极远距离
8.640538E-7 极低风险 0.34